Time,TemperatureF,DewpointF,PressureIn,WindDirection,WindDirectionDegrees,WindSpeedMPH,WindSpeedGustMPH,Humidity,HourlyPrecipIn,Conditions,Clouds,dailyrainin,SolarRadiationWatts/m^2,SoftwareType,DateUTC
2013-07-25 00:12:00,66.0,63.0,-100.00,WSW,241,4.0,7.0,89,0.00,,,0.00,0.000000,,2013-07-25 05:12:00,
2013-07-25 00:22:00,66.0,63.0,-100.00,WSW,241,4.0,7.0,89,0.00,,,0.00,0.000000,,2013-07-25 05:22:00,
2013-07-25 00:32:00,66.0,63.0,-100.00,WSW,241,4.0,7.0,89,0.00,,,0.00,0.000000,,2013-07-25 05:32:00,
2013-07-25 00:43:00,66.0,63.0,-100.00,WSW,241,4.0,7.0,89,0.00,,,0.00,0.000000,,2013-07-25 05:43:00,
2013-07-25 00:51:00,69.0,62.0,-100.00,West,277,5.0,11.0,79,0.00,,,0.00,0.000000,,2013-07-25 05:51:00,
2013-07-25 01:12:00,69.0,62.0,-100.00,West,277,5.0,11.0,79,0.00,,,0.00,0.000000,,2013-07-25 06:12:00,
2013-07-25 01:22:00,69.0,62.0,-100.00,West,277,5.0,11.0,79,0.00,,,0.00,0.000000,,2013-07-25 06:22:00,
2013-07-25 01:32:00,69.0,62.0,-100.00,West,277,5.0,11.0,79,0.00,,,0.00,0.000000,,2013-07-25 06:32:00,
2013-07-25 01:42:00,69.0,62.0,-100.00,West,277,5.0,11.0,79,0.00,,,0.00,0.000000,,2013-07-25 06:42:00,
2013-07-25 01:51:00,68.0,63.0,-100.00,NW,325,3.0,10.0,84,0.00,,,0.00,0.000000,,2013-07-25 06:51:00,
2013-07-25 02:12:00,68.0,63.0,-100.00,NW,325,3.0,10.0,84,0.00,,,0.00,0.000000,,2013-07-25 07:12:00,
2013-07-25 02:22:00,68.0,63.0,-100.00,NW,325,3.0,10.0,84,0.00,,,0.00,0.000000,,2013-07-25 07:22:00,
2013-07-25 02:32:00,68.0,63.0,-100.00,NW,325,3.0,10.0,84,0.00,,,0.00,0.000000,,2013-07-25 07:32:00,
2013-07-25 02:43:00,68.0,63.0,-100.00,NW,325,3.0,10.0,84,0.00,,,0.00,0.000000,,2013-07-25 07:43:00,
2013-07-25 02:51:00,64.0,63.0,-100.00,SW,224,4.0,5.0,97,0.00,,,0.00,0.000000,,2013-07-25 07:51:00,
2013-07-25 03:12:00,64.0,63.0,-100.00,SW,224,4.0,5.0,97,0.00,,,0.00,0.000000,,2013-07-25 08:12:00,
2013-07-25 03:22:00,64.0,63.0,-100.00,SW,224,4.0,5.0,97,0.00,,,0.00,0.000000,,2013-07-25 08:22:00,
2013-07-25 03:32:00,64.0,63.0,-100.00,SW,224,4.0,5.0,97,0.00,,,0.00,0.000000,,2013-07-25 08:32:00,
2013-07-25 03:44:00,64.0,63.0,-100.00,SW,224,4.0,5.0,97,0.00,,,0.00,0.000000,,2013-07-25 08:44:00,
2013-07-25 03:51:00,62.0,61.0,-100.00,NNE,18,2.0,4.0,98,0.00,,,0.00,0.000000,,2013-07-25 08:51:00,
2013-07-25 04:12:00,62.0,61.0,-100.00,NNE,18,2.0,4.0,98,0.00,,,0.00,0.000000,,2013-07-25 09:12:00,
2013-07-25 04:22:00,62.0,61.0,-100.00,NNE,18,2.0,4.0,98,0.00,,,0.00,0.000000,,2013-07-25 09:22:00,
2013-07-25 04:33:00,62.0,61.0,-100.00,NNE,18,2.0,4.0,98,0.00,,,0.00,0.000000,,2013-07-25 09:33:00,
2013-07-25 04:43:00,62.0,61.0,-100.00,NNE,18,2.0,4.0,98,0.00,,,0.00,0.000000,,2013-07-25 09:43:00,
2013-07-25 04:51:00,60.0,60.0,-100.00,North,352,2.0,4.0,99,0.00,,,0.00,0.000000,,2013-07-25 09:51:00,
2013-07-25 05:12:00,60.0,60.0,-100.00,North,352,2.0,4.0,99,0.00,,,0.00,0.000000,,2013-07-25 10:12:00,
2013-07-25 05:22:00,60.0,60.0,-100.00,North,352,2.0,4.0,99,0.00,,,0.00,0.000000,,2013-07-25 10:22:00,
2013-07-25 05:32:00,60.0,60.0,-100.00,North,352,2.0,4.0,99,0.00,,,0.00,0.000000,,2013-07-25 10:32:00,
2013-07-25 05:42:00,60.0,60.0,-100.00,North,352,2.0,4.0,99,0.00,,,0.00,0.000000,,2013-07-25 10:42:00,
2013-07-25 05:51:00,58.0,58.0,-100.00,NNE,16,1.0,3.0,99,0.00,,,0.00,0.000000,,2013-07-25 10:51:00,
2013-07-25 06:12:00,58.0,58.0,-100.00,NNE,16,1.0,3.0,99,0.00,,,0.00,0.000000,,2013-07-25 11:12:00,
2013-07-25 06:22:00,58.0,58.0,-100.00,NNE,16,1.0,3.0,99,0.00,,,0.00,0.000000,,2013-07-25 11:22:00,
2013-07-25 06:32:00,58.0,58.0,-100.00,NNE,16,1.0,3.0,99,0.00,,,0.00,0.000000,,2013-07-25 11:32:00,
2013-07-25 06:43:00,58.0,58.0,-100.00,NNE,16,1.0,3.0,99,0.00,,,0.00,0.000000,,2013-07-25 11:43:00,
2013-07-25 06:51:00,59.0,59.0,-100.00,NNE,16,2.0,4.0,100,0.00,,,0.00,32.000000,,2013-07-25 11:51:00,
2013-07-25 07:12:00,59.0,59.0,-100.00,NNE,16,2.0,4.0,100,0.00,,,0.00,32.000000,,2013-07-25 12:12:00,
2013-07-25 07:22:00,59.0,59.0,-100.00,NNE,16,2.0,4.0,100,0.00,,,0.00,32.000000,,2013-07-25 12:22:00,
2013-07-25 07:32:00,59.0,59.0,-100.00,NNE,16,2.0,4.0,100,0.00,,,0.00,32.000000,,2013-07-25 12:32:00,
2013-07-25 07:45:00,59.0,59.0,-100.00,NNE,16,2.0,4.0,100,0.00,,,0.00,32.000000,,2013-07-25 12:45:00,
2013-07-25 07:51:00,66.0,66.0,-100.00,WSW,247,3.0,7.0,100,0.00,,,0.00,131.000000,,2013-07-25 12:51:00,
2013-07-25 08:12:00,66.0,66.0,-100.00,WSW,247,3.0,7.0,100,0.00,,,0.00,131.000000,,2013-07-25 13:12:00,
2013-07-25 08:22:00,66.0,66.0,-100.00,WSW,247,3.0,7.0,100,0.00,,,0.00,131.000000,,2013-07-25 13:22:00,
2013-07-25 08:33:00,66.0,66.0,-100.00,WSW,247,3.0,7.0,100,0.00,,,0.00,131.000000,,2013-07-25 13:33:00,
2013-07-25 08:42:00,66.0,66.0,-100.00,WSW,247,3.0,7.0,100,0.00,,,0.00,131.000000,,2013-07-25 13:42:00,
2013-07-25 08:51:00,69.0,65.0,-100.00,East,96,2.0,7.0,86,0.00,,,0.00,184.000000,,2013-07-25 13:51:00,
2013-07-25 09:12:00,69.0,65.0,-100.00,East,96,2.0,7.0,86,0.00,,,0.00,184.000000,,2013-07-25 14:12:00,
2013-07-25 09:22:00,69.0,65.0,-100.00,East,96,2.0,7.0,86,0.00,,,0.00,184.000000,,2013-07-25 14:22:00,
2013-07-25 09:33:00,69.0,65.0,-100.00,East,96,2.0,7.0,86,0.00,,,0.00,184.000000,,2013-07-25 14:33:00,
2013-07-25 09:43:00,69.0,65.0,-100.00,East,96,2.0,7.0,86,0.00,,,0.00,184.000000,,2013-07-25 14:43:00,
2013-07-25 09:51:00,69.0,65.0,-100.00,WSW,243,5.0,7.0,86,0.00,,,0.00,150.000000,,2013-07-25 14:51:00,
2013-07-25 10:22:00,69.0,65.0,-100.00,WSW,243,5.0,7.0,86,0.00,,,0.00,150.000000,,2013-07-25 15:22:00,
2013-07-25 10:32:00,69.0,65.0,-100.00,WSW,243,5.0,7.0,86,0.00,,,0.00,150.000000,,2013-07-25 15:32:00,
2013-07-25 10:44:00,69.0,65.0,-100.00,WSW,243,5.0,7.0,86,0.00,,,0.00,150.000000,,2013-07-25 15:44:00,
2013-07-25 10:51:00,69.0,64.0,-100.00,West,277,5.0,14.0,83,0.01,,,0.01,175.000000,,2013-07-25 15:51:00,
2013-07-25 11:22:00,69.0,64.0,-100.00,West,277,5.0,14.0,83,0.01,,,0.01,175.000000,,2013-07-25 16:22:00,
2013-07-25 11:33:00,69.0,64.0,-100.00,West,277,5.0,14.0,83,0.01,,,0.01,175.000000,,2013-07-25 16:33:00,
2013-07-25 11:45:00,69.0,64.0,-100.00,West,277,5.0,14.0,83,0.01,,,0.01,175.000000,,2013-07-25 16:45:00,
2013-07-25 11:51:00,70.0,62.0,-100.00,NNW,337,6.0,10.0,75,0.00,,,0.01,277.000000,,2013-07-25 16:51:00,
2013-07-25 12:12:00,70.0,62.0,-100.00,NNW,337,6.0,10.0,75,0.00,,,0.01,277.000000,,2013-07-25 17:12:00,
2013-07-25 12:22:00,70.0,62.0,-100.00,NNW,337,6.0,10.0,75,0.00,,,0.01,277.000000,,2013-07-25 17:22:00,
2013-07-25 12:32:00,70.0,62.0,-100.00,NNW,337,6.0,10.0,75,0.00,,,0.01,277.000000,,2013-07-25 17:32:00,
2013-07-25 12:43:00,70.0,62.0,-100.00,NNW,337,6.0,10.0,75,0.00,,,0.01,277.000000,,2013-07-25 17:43:00,
2013-07-25 12:51:00,74.0,61.0,-100.00,North,352,10.0,14.0,65,0.00,,,0.01,476.000000,,2013-07-25 17:51:00,
2013-07-25 13:12:00,74.0,61.0,-100.00,North,352,10.0,14.0,65,0.00,,,0.01,476.000000,,2013-07-25 18:12:00,
2013-07-25 13:22:00,74.0,61.0,-100.00,North,352,10.0,14.0,65,0.00,,,0.01,476.000000,,2013-07-25 18:22:00,
2013-07-25 13:33:00,74.0,61.0,-100.00,North,352,10.0,14.0,65,0.00,,,0.01,476.000000,,2013-07-25 18:33:00,
2013-07-25 13:43:00,74.0,61.0,-100.00,North,352,10.0,14.0,65,0.00,,,0.01,476.000000,,2013-07-25 18:43:00,
2013-07-25 13:51:00,77.0,63.0,-100.00,North,355,5.0,14.0,61,0.00,,,0.01,848.000000,,2013-07-25 18:51:00,
2013-07-25 14:12:00,77.0,63.0,-100.00,North,355,5.0,14.0,61,0.00,,,0.01,848.000000,,2013-07-25 19:12:00,
2013-07-25 14:22:00,77.0,63.0,-100.00,North,355,5.0,14.0,61,0.00,,,0.01,848.000000,,2013-07-25 19:22:00,
2013-07-25 14:33:00,77.0,63.0,-100.00,North,355,5.0,14.0,61,0.00,,,0.01,848.000000,,2013-07-25 19:33:00,
2013-07-25 14:42:00,77.0,63.0,-100.00,North,355,5.0,14.0,61,0.00,,,0.01,848.000000,,2013-07-25 19:42:00,
2013-07-25 14:51:00,81.0,63.0,-100.00,WNW,290,5.0,11.0,55,0.00,,,0.01,837.000000,,2013-07-25 19:51:00,
2013-07-25 15:12:00,81.0,63.0,-100.00,WNW,290,5.0,11.0,55,0.00,,,0.01,837.000000,,2013-07-25 20:12:00,
2013-07-25 15:22:00,81.0,63.0,-100.00,WNW,290,5.0,11.0,55,0.00,,,0.01,837.000000,,2013-07-25 20:22:00,
2013-07-25 15:32:00,81.0,63.0,-100.00,WNW,290,5.0,11.0,55,0.00,,,0.01,837.000000,,2013-07-25 20:32:00,
2013-07-25 15:43:00,81.0,63.0,-100.00,WNW,290,5.0,11.0,55,0.00,,,0.01,837.000000,,2013-07-25 20:43:00,
2013-07-25 15:51:00,81.0,62.0,-100.00,WSW,240,5.0,10.0,53,0.00,,,0.01,641.000000,,2013-07-25 20:51:00,
2013-07-25 16:12:00,81.0,62.0,-100.00,WSW,240,5.0,10.0,53,0.00,,,0.01,641.000000,,2013-07-25 21:12:00,
2013-07-25 16:22:00,81.0,62.0,-100.00,WSW,240,5.0,10.0,53,0.00,,,0.01,641.000000,,2013-07-25 21:22:00,
2013-07-25 16:32:00,81.0,62.0,-100.00,WSW,240,5.0,10.0,53,0.00,,,0.01,641.000000,,2013-07-25 21:32:00,
2013-07-25 16:44:00,81.0,62.0,-100.00,WSW,240,5.0,10.0,53,0.00,,,0.01,641.000000,,2013-07-25 21:44:00,
2013-07-25 16:51:00,78.0,64.0,-100.00,SW,219,5.0,9.0,63,0.00,,,0.01,593.000000,,2013-07-25 21:51:00,
2013-07-25 17:12:00,78.0,64.0,-100.00,SW,219,5.0,9.0,63,0.00,,,0.01,593.000000,,2013-07-25 22:12:00,
2013-07-25 17:22:00,78.0,64.0,-100.00,SW,219,5.0,9.0,63,0.00,,,0.01,593.000000,,2013-07-25 22:22:00,
2013-07-25 17:32:00,78.0,64.0,-100.00,SW,219,5.0,9.0,63,0.00,,,0.01,593.000000,,2013-07-25 22:32:00,
2013-07-25 17:43:00,78.0,64.0,-100.00,SW,219,5.0,9.0,63,0.00,,,0.01,593.000000,,2013-07-25 22:43:00,
2013-07-25 17:51:00,81.0,66.0,-100.00,SW,236,6.0,10.0,60,0.00,,,0.01,495.000000,,2013-07-25 22:51:00,
2013-07-25 18:12:00,81.0,66.0,-100.00,SW,236,6.0,10.0,60,0.00,,,0.01,495.000000,,2013-07-25 23:12:00,
2013-07-25 18:22:00,81.0,66.0,-100.00,SW,236,6.0,10.0,60,0.00,,,0.01,495.000000,,2013-07-25 23:22:00,
2013-07-25 18:32:00,81.0,66.0,-100.00,SW,236,6.0,10.0,60,0.00,,,0.01,495.000000,,2013-07-25 23:32:00,
2013-07-25 18:43:00,81.0,66.0,-100.00,SW,236,6.0,10.0,60,0.00,,,0.01,495.000000,,2013-07-25 23:43:00,
2013-07-25 18:51:00,81.0,61.0,-100.00,WNW,292,7.0,11.0,50,0.00,,,0.01,441.000000,,2013-07-25 23:51:00,
2013-07-25 19:12:00,81.0,61.0,-100.00,WNW,292,7.0,11.0,50,0.00,,,0.01,441.000000,,2013-07-26 00:12:00,
2013-07-25 19:22:00,81.0,61.0,-100.00,WNW,292,7.0,11.0,50,0.00,,,0.01,441.000000,,2013-07-26 00:22:00,
2013-07-25 19:33:00,81.0,61.0,-100.00,WNW,292,7.0,11.0,50,0.00,,,0.01,441.000000,,2013-07-26 00:33:00,
2013-07-25 19:43:00,81.0,61.0,-100.00,WNW,292,7.0,11.0,50,0.00,,,0.01,441.000000,,2013-07-26 00:43:00,
2013-07-25 19:51:00,77.0,61.0,-100.00,WNW,293,4.0,11.0,58,0.00,,,0.01,198.000000,,2013-07-26 00:51:00,
2013-07-25 20:12:00,77.0,61.0,-100.00,WNW,293,4.0,11.0,58,0.00,,,0.01,198.000000,,2013-07-26 01:12:00,
2013-07-25 20:22:00,77.0,61.0,-100.00,WNW,293,4.0,11.0,58,0.00,,,0.01,198.000000,,2013-07-26 01:22:00,
2013-07-25 20:32:00,77.0,61.0,-100.00,WNW,293,4.0,11.0,58,0.00,,,0.01,198.000000,,2013-07-26 01:32:00,
2013-07-25 20:43:00,77.0,61.0,-100.00,WNW,293,4.0,11.0,58,0.00,,,0.01,198.000000,,2013-07-26 01:43:00,
2013-07-25 21:51:00,71.0,58.0,-100.00,NNW,331,9.0,15.0,63,0.00,,,0.01,3.000000,,2013-07-26 02:51:00,
2013-07-25 22:12:00,71.0,58.0,-100.00,NNW,331,9.0,15.0,63,0.00,,,0.01,3.000000,,2013-07-26 03:12:00,
2013-07-25 22:22:00,71.0,58.0,-100.00,NNW,331,9.0,15.0,63,0.00,,,0.01,3.000000,,2013-07-26 03:22:00,
2013-07-25 22:32:00,71.0,58.0,-100.00,NNW,331,9.0,15.0,63,0.00,,,0.01,3.000000,,2013-07-26 03:32:00,
2013-07-25 22:43:00,71.0,58.0,-100.00,NNW,331,9.0,15.0,63,0.00,,,0.01,3.000000,,2013-07-26 03:43:00,
2013-07-25 22:51:00,67.0,57.0,-100.00,NNW,332,6.0,14.0,70,0.00,,,0.01,0.000000,,2013-07-26 03:51:00,
2013-07-25 23:12:00,67.0,57.0,-100.00,NNW,332,6.0,14.0,70,0.00,,,0.01,0.000000,,2013-07-26 04:12:00,
2013-07-25 23:22:00,67.0,57.0,-100.00,NNW,332,6.0,14.0,70,0.00,,,0.01,0.000000,,2013-07-26 04:22:00,
2013-07-25 23:32:00,67.0,57.0,-100.00,NNW,332,6.0,14.0,70,0.00,,,0.01,0.000000,,2013-07-26 04:32:00,
2013-07-25 23:42:00,67.0,57.0,-100.00,NNW,332,6.0,14.0,70,0.00,,,0.01,0.000000,,2013-07-26 04:42:00,
2013-07-25 23:51:00,64.0,53.0,-100.00,NW,311,7.0,10.0,68,0.00,,,0.01,0.000000,,2013-07-26 04:51:00,